Address 0x15ecebe888c5d09dee5423b33ca74733eedcc1f8

Txn Hash Method
Block
From
To
Value [Txn Fee]
0xd4dba37c8f65307cc4d2e0d4179daef4642efc9dd205af38d180fbf420c93cb7Cancel Listing47908122022-09-25 3:15:551 hr 24 mins ago0x15ecebe888c5d09dee5423b33ca74733eedcc1f8OUT 0x7a3cdb2364f92369a602cae81167d0679087e6a30 CRO1.7537305398020
0xaaa94984a4ddeec8aef5b31ffd9793b6c0dfb93ec0aead98fedb715691f49ee1Cancel Listing47908102022-09-25 3:15:441 hr 24 mins ago0x15ecebe888c5d09dee5423b33ca74733eedcc1f8OUT 0x7a3cdb2364f92369a602cae81167d0679087e6a30 CRO1.7537305398020
0x5f2f05fe3acf5c77c415381b149ba792e803f1802b8bdb26480db6a93f02b795Cancel Listing47908092022-09-25 3:15:381 hr 24 mins ago0x15ecebe888c5d09dee5423b33ca74733eedcc1f8OUT 0x7a3cdb2364f92369a602cae81167d0679087e6a30 CRO1.7537305718570
0x3114c4122811257a635848d019d80f2729449086b22a44ca69adc840100a0be9Cancel Listing47908082022-09-25 3:15:321 hr 24 mins ago0x15ecebe888c5d09dee5423b33ca74733eedcc1f8OUT 0x7a3cdb2364f92369a602cae81167d0679087e6a30 CRO1.7537306023360
0xdf9cb663c4186257e4c81e9d98eec8e69a7c6a355663e7c0aee4d534ca175c7fCancel Multiple ...47908022022-09-25 3:14:591 hr 25 mins ago0x15ecebe888c5d09dee5423b33ca74733eedcc1f8OUT 0x40cbf9c75a46b147e0fd9ab47df5e064ae015f920 CRO0.2480554526230
0xf2754fd7f332100428dd2c040bf4bd06bc78f094f03aa60d5e105220de11e212Make Listing47899922022-09-25 1:58:082 hrs 41 mins ago0x15ecebe888c5d09dee5423b33ca74733eedcc1f8OUT 0x7a3cdb2364f92369a602cae81167d0679087e6a30 CRO1.8852948201780
0xf85ca830d11a40bfddcb30e3481d16360ce7847893692baf8866f367407d8604Make Listing47899812022-09-25 1:57:062 hrs 42 mins ago0x15ecebe888c5d09dee5423b33ca74733eedcc1f8OUT 0x7a3cdb2364f92369a602cae81167d0679087e6a30 CRO1.8852950496060
0x6245ae1ba5b880c83664c1a12547033d4b8d0ee449142751e49ca04d885159fdTransfer47899472022-09-25 1:53:532 hrs 46 mins ago0x15ecebe888c5d09dee5423b33ca74733eedcc1f8OUT0xd5376d43179916242c2957f8a699363217dba410550 CRO0.1031423939950
0x624df804326f482b448bd6d39c50ec75c2c20789d0a36b936af8c23a6940ba8dTransfer47899412022-09-25 1:53:182 hrs 46 mins ago0x15ecebe888c5d09dee5423b33ca74733eedcc1f8OUT Cronos: WCRO Token0 CRO0.1606811240950
0x49f4b8ad5e2ef1637346fce55ab14587bec7b4b253ef7eac9569279802cd27f7Withdraw Payment...47899302022-09-25 1:52:162 hrs 47 mins ago0x15ecebe888c5d09dee5423b33ca74733eedcc1f8OUT 0x7a3cdb2364f92369a602cae81167d0679087e6a30 CRO0.2427235588470
0xee3a8a4edb586e680851589cdf6c84f9b973ff91926e67a8f940692b73178896Cancel Listing47899232022-09-25 1:51:362 hrs 48 mins ago0x15ecebe888c5d09dee5423b33ca74733eedcc1f8OUT 0x7a3cdb2364f92369a602cae81167d0679087e6a30 CRO1.7537452397670
0xf0741627dcb54fb9502f87a140b7b6239a19fc9be26b87a7292ac6e529cf2311Cancel Listing47899202022-09-25 1:51:192 hrs 48 mins ago0x15ecebe888c5d09dee5423b33ca74733eedcc1f8OUT 0x7a3cdb2364f92369a602cae81167d0679087e6a30 CRO1.7537453076410
0xf3f855cd6a850cae25489e5f094ab57ae5621863e608d2f6a27e606e13cccad5Make Listing47898842022-09-25 1:47:552 hrs 52 mins ago0x15ecebe888c5d09dee5423b33ca74733eedcc1f8OUT 0x7a3cdb2364f92369a602cae81167d0679087e6a30 CRO1.8852967250480
0x23dab026da2debbbbd60022b351677861fe3da46af407f3ae7e5933a5da4a06fWithdraw Payment...47898552022-09-25 1:45:102 hrs 54 mins ago0x15ecebe888c5d09dee5423b33ca74733eedcc1f8OUT 0x7a3cdb2364f92369a602cae81167d0679087e6a30 CRO0.2427237293460
0x5fea4a1ff053633465d5de65aad27b6e0314b0f452cfd1bd96961a20429a1129Make Listing47898282022-09-25 1:42:372 hrs 57 mins ago0x15ecebe888c5d09dee5423b33ca74733eedcc1f8OUT 0x7a3cdb2364f92369a602cae81167d0679087e6a30 CRO1.8852977527610
0xc0eafc0427bc8bfad9f77a4e87eaca105e8e558c550c33eb9f609913a9bb4ec4Cancel Listing47898212022-09-25 1:41:582 hrs 58 mins ago0x15ecebe888c5d09dee5423b33ca74733eedcc1f8OUT 0x7a3cdb2364f92369a602cae81167d0679087e6a30 CRO1.753746963920
0xccb626937f7114928bff8677ccb61cb6d58bef405dd11353603be6347ba56f0fCancel Listing47898182022-09-25 1:41:412 hrs 58 mins ago0x15ecebe888c5d09dee5423b33ca74733eedcc1f8OUT 0x7a3cdb2364f92369a602cae81167d0679087e6a30 CRO1.753747014550
0x5d75a48d7dafe27bfb263256c45f5c7b942db85fe44e93b34ad62f160554fdb5Transfer47897542022-09-25 1:35:373 hrs 4 mins ago0x15ecebe888c5d09dee5423b33ca74733eedcc1f8OUT Cronos: WCRO Token0 CRO0.1606814100220
0xea6cb3f4d1a13a671b424c69414d8eb6e0def1e3af7fd5aca5078d3edd81c28aTransfer47897472022-09-25 1:34:573 hrs 5 mins ago0x15ecebe888c5d09dee5423b33ca74733eedcc1f8OUT Cronos: WCRO Token0 CRO0.2008480935590
0xec7cb097047d399a6f44f9dfd1e9648045d8f421629e595f9f3f7844835e2d0fTransfer47897222022-09-25 1:32:353 hrs 7 mins ago0x15ecebe888c5d09dee5423b33ca74733eedcc1f8OUT Cronos: WCRO Token0 CRO0.2008481371450
0x4a8d7a75893ee8d28911a4991eec21c9d5e86465c02fdfa46a00520ee50c057dMake Listing47879262022-09-24 22:42:325 hrs 57 mins ago0x15ecebe888c5d09dee5423b33ca74733eedcc1f8OUT 0x7a3cdb2364f92369a602cae81167d0679087e6a30 CRO1.8853317119580
0xff52939ae17a20524d741426f81944cf33ca398d6cfb5b9128cfa4bb6e6566bdMake Listing47879142022-09-24 22:41:245 hrs 58 mins ago0x15ecebe888c5d09dee5423b33ca74733eedcc1f8OUT 0x7a3cdb2364f92369a602cae81167d0679087e6a30 CRO1.8853319293210
0x83b846d7607109f5f2150b3bbcdf622f15973ee2727a8fac6272511715231b67Make Listing47879062022-09-24 22:40:395 hrs 59 mins ago0x15ecebe888c5d09dee5423b33ca74733eedcc1f8OUT 0x7a3cdb2364f92369a602cae81167d0679087e6a30 CRO1.8853320558720
0x5899edb327f7f67c3ba4927e09d3832f60036383e85b5a39130cc5b29a62326fMake Listing47879002022-09-24 22:40:046 hrs ago0x15ecebe888c5d09dee5423b33ca74733eedcc1f8OUT 0x7a3cdb2364f92369a602cae81167d0679087e6a30 CRO1.8853321811950
0x2363f0216381749352383d2bc01ca177f4da3d5c04db6bd7abcdaa526f4fab1fTransfer47869642022-09-24 21:11:157 hrs 28 mins ago0x15ecebe888c5d09dee5423b33ca74733eedcc1f8OUT0xd5376d43179916242c2957f8a699363217dba410250 CRO0.1031453039820
[ Download CSV Export 
Latest 9 internal transactions
Parent Txn Hash Block From To Value
0x49f4b8ad5e2ef1637346fce55ab14587bec7b4b253ef7eac9569279802cd27f747899302022-09-25 1:52:162 hrs 47 mins ago 0x39a3f70d1696093f8cad28e62bcbbf6c8fdf19d60x15ecebe888c5d09dee5423b33ca74733eedcc1f8286.23 CRO
0x23dab026da2debbbbd60022b351677861fe3da46af407f3ae7e5933a5da4a06f47898552022-09-25 1:45:102 hrs 54 mins ago 0x39a3f70d1696093f8cad28e62bcbbf6c8fdf19d60x15ecebe888c5d09dee5423b33ca74733eedcc1f8286.23 CRO
0x20f43e7817026c949bd45ef28c6d16b17b0f937f38ec69b91011e05106682bd347869112022-09-24 21:06:157 hrs 33 mins ago 0x39a3f70d1696093f8cad28e62bcbbf6c8fdf19d60x15ecebe888c5d09dee5423b33ca74733eedcc1f8260.13 CRO
0xb8e006597e5a656d1e5f41eafc72211f0616ce923e60667dcefdb319eaf42a6b47853632022-09-24 18:39:2610 hrs ago 0x39a3f70d1696093f8cad28e62bcbbf6c8fdf19d60x15ecebe888c5d09dee5423b33ca74733eedcc1f8365.4 CRO
0x48a848c5e555e4f6df4fb34ecb08e6275740f6a87457b0d1cf39f79106825a5347847142022-09-24 17:37:3611 hrs 2 mins ago 0x39a3f70d1696093f8cad28e62bcbbf6c8fdf19d60x15ecebe888c5d09dee5423b33ca74733eedcc1f8120.93 CRO
0xefb5dadc37baed17bdf039bc26e5030fb54100a3ba717cea9cab23018730622147839172022-09-24 16:22:0812 hrs 17 mins ago Cronos: WCRO Token0x15ecebe888c5d09dee5423b33ca74733eedcc1f81,791.68 CRO
0x1645f78a2f11d4c6bfc68e3436c17f5812b4c6c8fc92cf1b358bff1127079e0547819222022-09-24 13:12:4315 hrs 27 mins ago Cronos: WCRO Token0x15ecebe888c5d09dee5423b33ca74733eedcc1f8865.92 CRO
0xcce1ce390bd7e951528cf3179f8b694a0110c563e7457aefca0d39e356d525ff47702232022-09-23 18:44:441 day 9 hrs ago Cronos: WCRO Token0x15ecebe888c5d09dee5423b33ca74733eedcc1f8958.32 CRO
0xdcb264214dce09c1ba3da1bb5d3870eac2a5d5ba506b522b68db059bb7ed741b47268242022-09-20 22:14:504 days 6 hrs ago 0x9e295527efb2514bfcbc7ac5b3d17ae3ee192c9d0x15ecebe888c5d09dee5423b33ca74733eedcc1f815.320375215044721688 CRO
[ Download CSV Export 
Loading

Contract Name:
0

Compiler Version
0

Optimization Enabled:
0

Other Settings:
-NA-
Block Transaction Gas Used Reward
Age Block Fee Address BC Fee Address Voting Power Jailed Incoming
Block Uncle Number Difficulty Gas Used Reward
Loading
Make sure to use the "Vote Down" button for any spammy posts, and the "Vote Up" for interesting conversations.